Location: Bats
(43.6587°N, 0.4584°W)
Time: 09:03:41
(UTC+00:00)

USA 215 - Pass Details

Date: 12 January 2026
Orbit: 1098 x 1109 km, 123.0° (Epoch: 10 January)

Event Time Altitude Azimuth Distance (km) Brightness Sun altitude
Exits shadow 19:58:06 45° 346° (NNW) 1,472 3.9 -34.0°
Maximum altitude 19:58:34 45° 334° (NNW) 1,458 3.9 -34.0°
Drops below altitude 10° 20:04:42 10° 264° (W) 2,956 6.3 -35.1°
Sets 20:07:16 0° 259° (WSW) 3,911 7.1 -35.6°
